Bellingham, WA
on Sunday, December 16, 2012

Sunday
Previous Day Next Day
Daily Summary
 ActualAverageRecord
Temperature
Mean Temperature °F 38°F  
Max Temperature 42°F 44°F 57°F (1976)
Min Temperature 37°F 32°F -1°F (1964)
Degree Days
Heating Degree Days 26 27  
Month to date heating degree days 422  
Cooling Degree Days 0 0  
Month to date cooling degree days 0  
Year to date cooling degree days 42  
Moisture
Dew Point 36°F   
Average Humidity 87    
Maximum Humidity 97    
Minimum Humidity 76    
Precipitation
Precipitation 0.21 in 0.13 in 0.82 in (2002)
Month to date precipitation 2.34  
Year to date precipitation 33.95  
Wind
Wind Speed 9 mph   
Max Wind Speed 17 mph   
Max Gust Speed 23 mph   
Visibility 10 miles   
Events Rain   

Key: T is trace of precipitation, MM is missing value
Source: NWS Daily Summary
Time(PST)TemperatureDew PointHumidity Pressure Visibility Wind DirectionWind SpeedGust SpeedPrecipitationEvents Conditions
12:53 AM 42.1°F 35.1°F 76% 29.66 in 10.0 miles South 5.8 mph - N/A   Mostly Cloudy
1:53 AM 42.1°F 35.1°F 76% 29.67 in 10.0 miles South 6.9 mph - 0.00 in Rain Light Rain
2:33 AM 41.0°F 37.4°F 87% 29.66 in 10.0 miles SSE 10.4 mph 18.4 mph 0.00 in   Overcast
2:53 AM 39.9°F 37.0°F 89% 29.69 in 10.0 miles SSE 10.4 mph - 0.00 in Rain Light Rain
3:28 AM 39.2°F 37.4°F 93% 29.67 in 10.0 miles South 10.4 mph 19.6 mph 0.04 in Rain Light Rain
3:39 AM 39.2°F 35.6°F 87% 29.67 in 10.0 miles SSE 17.3 mph 23.0 mph 0.04 in Rain Light Rain
3:53 AM 39.0°F 36.0°F 89% 29.70 in 10.0 miles SSE 11.5 mph - 0.04 in   Overcast
4:53 AM 39.2°F 35.6°F 87% 29.67 in 10.0 miles SSE 12.7 mph 18.4 mph N/A   Overcast
5:53 AM 39.9°F 35.1°F 83% 29.71 in 10.0 miles SSE 8.1 mph - 0.00 in Rain Light Rain
6:33 AM 39.2°F 35.6°F 87% 29.69 in 5.0 miles SSE 11.5 mph 21.9 mph 0.03 in Rain Light Rain
6:53 AM 39.0°F 36.0°F 89% 29.72 in 10.0 miles SSE 13.8 mph 23.0 mph 0.03 in   Overcast
7:28 AM 39.2°F 35.6°F 87% 29.69 in 10.0 miles SSE 6.9 mph - 0.00 in Rain Light Rain
7:35 AM 39.2°F 35.6°F 87% 29.69 in 10.0 miles SSE 11.5 mph 17.3 mph 0.00 in   Overcast
7:53 AM 39.9°F 35.1°F 83% 29.72 in 10.0 miles SSE 9.2 mph - 0.00 in   Overcast
8:23 AM 39.2°F 35.6°F 87% 29.69 in 10.0 miles SSE 13.8 mph 23.0 mph N/A   Overcast
8:53 AM 39.9°F 35.1°F 83% 29.73 in 10.0 miles SSE 11.5 mph - N/A   Mostly Cloudy
9:50 AM 39.2°F 35.6°F 87% 29.68 in 10.0 miles SSE 8.1 mph - 0.00 in Rain Light Rain
9:53 AM 39.9°F 36.0°F 86% 29.71 in 10.0 miles SSE 6.9 mph - 0.00 in Rain Light Rain
10:21 AM 41.0°F 35.6°F 81% 29.67 in 10.0 miles SSE 8.1 mph - 0.00 in   Overcast
10:53 AM 41.0°F 37.0°F 86% 29.68 in 10.0 miles SE 6.9 mph - 0.00 in   Overcast
11:53 AM 42.1°F 36.0°F 79% 29.65 in 10.0 miles SE 11.5 mph - N/A   Mostly Cloudy
12:53 PM 42.1°F 35.1°F 76% 29.58 in 10.0 miles SE 15.0 mph 21.9 mph N/A   Mostly Cloudy
1:53 PM 41.0°F 35.1°F 79% 29.53 in 10.0 miles SE 12.7 mph - N/A   Overcast
2:53 PM 41.0°F 35.1°F 79% 29.46 in 10.0 miles NNE 3.5 mph - N/A   Overcast
3:53 PM 39.0°F 35.1°F 86% 29.39 in 10.0 miles NNE 8.1 mph - 0.00 in Rain Light Rain
4:09 PM 39.2°F 35.6°F 87% 29.33 in 10.0 miles NNE 8.1 mph - 0.00 in Rain Light Rain
4:53 PM 39.0°F 36.0°F 89% 29.27 in 8.0 miles NE 9.2 mph - 0.01 in Rain Light Rain
5:53 PM 37.0°F 35.1°F 93% 29.18 in 8.0 miles NE 12.7 mph - 0.08 in Rain Light Rain
6:44 PM 37.4°F 35.6°F 93% 29.07 in 8.0 miles NNE 16.1 mph 21.9 mph 0.04 in Rain Light Rain
6:53 PM 37.0°F 35.1°F 93% 29.08 in 10.0 miles NNE 16.1 mph 23.0 mph 0.04 in Rain Light Rain
7:53 PM 37.9°F 35.1°F 89% 29.04 in 7.0 miles NNE 15.0 mph 20.7 mph 0.00 in Rain Light Rain
8:53 PM 37.9°F 36.0°F 93% 29.02 in 10.0 miles NE 11.5 mph - 0.00 in Rain Light Rain
9:06 PM 37.4°F 35.6°F 93% 28.99 in 9.0 miles Calm Calm - 0.01 in Rain Light Rain
9:09 PM 37.4°F 35.6°F 93% 28.99 in 10.0 miles Calm Calm - 0.01 in Rain Light Rain
9:53 PM 37.9°F 37.0°F 97% 29.01 in 10.0 miles North 8.1 mph - 0.01 in Rain Light Rain
10:04 PM 37.4°F 35.6°F 93% 28.98 in 10.0 miles North 5.8 mph - 0.00 in Rain Light Rain
10:53 PM 37.9°F 36.0°F 93% 28.99 in 10.0 miles North 10.4 mph - 0.00 in   Overcast
11:53 PM 37.9°F 36.0°F 93% 28.98 in 10.0 miles Variable 6.9 mph - 0.00 in   Overcast
Moon Phase
Dec. 16 Dec. 20 Dec. 28 Jan. 04 Jan. 11
Sunrise:07:57 AM (PST) Moon Rise:10:19 AM (PST)12/16
Sunset:04:14 PM (PST) Moon Set:08:52 PM (PST)12/16

Copyright © 2014 The Weather Underground, Inc.